Weather in Shemisheika

Russia / Penza Oblast     52°53′23″N   45°23′52″E
temp.,
°C
wind,
m/s
gust,
m/s
humid.,
%
clouds,
%
prec.,
mm/h
press.,
hPa
HPBL,
m
4 march, thu
thu400:00−8w499667 0.1 1011219
03:00−7wsw5119781 0.2 1010349
06:00−2wsw51196100 0.2 1008722
09:00−2wsw81390100 0.5 1006861
12:000wsw91591100 0.1 10041033
15:000wsw91690100 0.2 1003932
18:000wsw71489100 0.0 10021040
21:00−1wsw61295100 0.3 1002766
5 march, fri
fri500:00−1wsw51294100 0.2 1001584
03:00−2wsw51194100 0.3 1001431
06:00−2wsw51197100 0.4 1001537
09:00−2nnw4596100 1.1 1003383
12:00−1nnw3593100 0.4 1006611
15:00−1nw468398 0.6 1008791
18:00−7nw239110 0.0 101121
21:00−9w239324 0.0 101421
6 march, sat
sat600:00−10w339576 0.0 101530
03:00−11w239682 0.0 101626
06:00−12nw2296100 0.0 101621
09:00−9n2392100 0.0 1017146
12:00−6n2383100 0.0 1016425
15:00−5nne3381100 0.0 1015628
18:00−10nne2388100 0.0 101521
21:00−14ne119056 0.0 101620
7 march, sun
sun700:00−16nw01890 0.0 101620
03:00−15wsw228844 0.0 101620
06:00−15sw339076 0.0 101532
09:00−10wsw589587 0.1 1015316
12:00−7wsw61089100 0.1 1013763
15:00−6sw7128494 0.1 1011829
18:00−6ssw81585100 0.0 10081012
21:00−5sw101893100 0.6 10041166
8 march, mon
mon800:00−4sw91691100 0.6 1002912
03:00−7wnw4890100 1.3 1004337
06:00−11sw339348 0.0 100437
09:00−7ssw588374 0.0 1003340
12:00−2sw91495100 0.9 10001123
15:00−3w81680100 2.1 9991445
18:00−9w8168148 0.2 1003882
21:00−10w9178643 0.2 1008823